Location: Peterborough
(44.3091°N, 78.3197°W)
Time: 06:29:43
(UTC-04:00)

Vanguard 3 - Pass Details

Date: 28 February 2024
Orbit: 510 x 3236 km, 33.3° (Epoch: 12 April)

Event Time Altitude Azimuth Distance (km) Brightness Sun altitude
Rises 16:39:48 0° 182° (S) 5,893 11.9 12.7°
Reaches altitude 10° 16:45:36 10° 164° (SSE) 5,359 11.5 11.8°
Maximum altitude 16:54:46 17° 131° (SE) 5,280 11.1 10.3°
Drops below altitude 10° 17:05:03 10° 98° (E) 6,161 11.1 8.6°
Sets 17:12:28 0° 83° (E) 7,159 11.3 7.3°
